Flag Weather past 2 weeks in Newport, Wales, United Kingdom

Now
41 °F

Quite cool.


Feels Like: 38 °F
Forecast: 40 / 47 °F
Wind: 5 mph from Southeast

Location: Bristol / Lulsgate

Current Time: Nov 27, 2014 at 10:07:06 AM

Latest Report: Nov 27, 2014 at 9:20 AM


Visibility: N/A

Pressure: 29.59 "Hg

Humidity: 100%

Dew point: 41 °F

Location of NewportLocation

Historic Weather in Newport — Graph

°F

Newport temperature yesterday

Maximum temperature yesterday: 45 °F (at 12:20 PM)
Minimum temperature yesterday: 41 °F (at 12:20 AM)
Average temperature yesterday: 43 °F

Past Weeks' High & Low Weather Summary

 TemperatureHumidityPressure
High55 °F (Nov 13, 1:50 PM)100% (Nov 15, 5:50 AM)30.33 "Hg (Nov 15, 5:50 AM)
Low34 °F (Nov 24, 9:20 PM)66% (Nov 24, 11:20 AM)29.27 "Hg (Nov 12, 8:20 AM)
Average46 °F93%29.81 "Hg
* Reported Nov 12 8:20 AM — Nov 27 8:20 AM, Newport, Weather by CustomWeather, © 2014

Note: Actual official high and low records may vary slightly from our data, if they occured in-between our weather recording intervals... More about our weather records

Advertising

Newport weather history for previous 24 hours

 ConditionsComfort  
Time TempWeatherWind HumidityBarometerVisibility
8:20 AM
Nov 27
39 °FFog.6 mph100%29.59 "Hg0 mi
7:50 AM41 °FFog.3 mph93%29.59 "Hg2 mi
7:20 AM41 °FFog.2 mph100%29.59 "HgN/A
6:50 AM43 °FPassing clouds.3 mph100%29.62 "Hg4 mi
6:20 AM43 °FPassing clouds.3 mph100%29.62 "Hg4 mi
5:50 AM43 °FFog.2 mph100%29.62 "Hg2 mi
5:20 AM43 °FFog.3 mph100%29.62 "Hg1 mi
4:50 AM43 °FFog.2 mph100%29.65 "Hg0 mi
4:20 AM43 °FFog.2 mph100%29.65 "Hg1 mi
3:50 AM43 °FFog.2 mph100%29.65 "Hg0 mi
3:20 AM43 °FFog.No wind100%29.68 "Hg0 mi
2:50 AM43 °FFog.No wind100%29.68 "Hg1 mi
2:20 AM43 °FFog.No wind100%29.68 "Hg1 mi
1:50 AM43 °FFog.No wind100%29.68 "Hg1 mi
1:20 AM43 °FFog.2 mph100%29.68 "Hg1 mi
12:50 AM43 °FFog.5 mph100%29.71 "Hg1 mi
12:20 AM43 °FFog.3 mph100%29.71 "Hg0 mi
11:50 PM
Nov 26
43 °FFog.2 mph100%29.74 "Hg0 mi
11:20 PM43 °FFog.2 mph100%29.74 "Hg0 mi
10:50 PM43 °FFog.2 mph100%29.74 "Hg0 mi
10:20 PM43 °FFog.3 mph100%29.74 "Hg0 mi
9:50 PM43 °FFog.No wind100%29.77 "Hg0 mi
9:20 PM43 °FFog.2 mph100%29.77 "Hg1 mi
8:50 PM43 °FFog.3 mph100%29.77 "Hg1 mi
7:50 PM43 °FFog.3 mph100%29.80 "Hg0 mi
7:20 PM43 °FFog.3 mph100%29.80 "Hg1 mi
6:50 PM43 °FFog.5 mph100%29.80 "Hg0 mi
6:20 PM43 °FFog.3 mph100%29.80 "Hg0 mi
5:50 PM43 °FFog.5 mph100%29.80 "Hg0 mi
5:20 PM43 °FFog.3 mph100%29.80 "Hg1 mi
4:50 PM43 °FFog.3 mph100%29.80 "Hg1 mi
4:20 PM43 °FFog.5 mph100%29.80 "Hg1 mi
3:50 PM43 °FFog.6 mph100%29.83 "Hg1 mi
3:20 PM43 °FFog.5 mph100%29.83 "Hg1 mi
2:50 PM43 °FFog.5 mph100%29.83 "Hg1 mi
2:20 PM43 °FFog.5 mph100%29.83 "Hg0 mi
1:50 PM43 °FFog.5 mph100%29.83 "Hg0 mi
1:20 PM45 °FFog.5 mph93%29.83 "Hg0 mi
12:50 PM45 °FFog.6 mph93%29.86 "Hg0 mi
12:20 PM45 °FFog.5 mph93%29.86 "Hg0 mi
11:50 AM43 °FFog.5 mph100%29.86 "Hg0 mi
11:20 AM43 °FFog.9 mph100%29.86 "Hg0 mi
10:50 AM43 °FFog.6 mph100%29.89 "Hg0 mi
10:20 AM43 °FFog.6 mph100%29.89 "Hg0 mi
Weather by CustomWeather, © 2014

See weather overviewHow to use our weather pages